| time (UTC) | temp C | wind direction | speed KPH | gust KPH | rain 1hr cm | rain 24hr cm | rain mn cm | humidity % | barometer mb |
| 20260506014559 | 10 | 13 | 4.8 | 25.7 | 0.00 | 0.00 | 0.00 | 77 | 1011.0 |
| 20260506013053 | 10 | 15 | 6.4 | 25.7 | 0.00 | 0.00 | 0.00 | 77 | 1010.8 |
| 20260506011554 | 10 | 0 | 4.8 | 33.8 | 0.00 | 0.00 | 0.00 | 77 | 1010.4 |
| 20260505211611 | 11 | 15 | 6.4 | 35.4 | 0.00 | 0.00 | 0.00 | 76 | 1008.8 |
| 20260505210052 | 11 | 13 | 4.8 | 24.1 | 0.00 | 0.00 | 0.00 | 78 | 1008.1 |
| 20260505204551 | 11 | 11 | 6.4 | 29.0 | 0.00 | 0.00 | 0.00 | 78 | 1008.1 |
| 20260505203055 | 11 | 13 | 8.0 | 30.6 | 0.00 | 0.00 | 0.00 | 78 | 1008.5 |
| 20260505201602 | 12 | 11 | 9.7 | 32.2 | 0.00 | 0.00 | 0.00 | 78 | 1008.1 |
| 20260505194555 | 12 | 14 | 9.7 | 33.8 | 0.00 | 0.00 | 0.00 | 79 | 1007.9 |
| 20260505193050 | 12 | 15 | 6.4 | 25.7 | 0.00 | 0.00 | 0.00 | 80 | 1007.9 |
| 20260505191553 | 12 | 10 | 8.0 | 29.0 | 0.00 | 0.00 | 0.00 | 81 | 1007.6 |
| 20260505190054 | 12 | 15 | 4.8 | 29.0 | 0.00 | 0.00 | 0.00 | 81 | 1007.5 |
| 20260505184548 | 12 | 14 | 9.7 | 25.7 | 0.00 | 0.00 | 0.00 | 82 | 1007.3 |
| 20260505183052 | 12 | 12 | 6.4 | 25.7 | 0.00 | 0.00 | 0.00 | 83 | 1007.3 |
| 20260505181552 | 12 | 13 | 9.7 | 30.6 | 0.00 | 0.00 | 0.00 | 83 | 1007.3 |
| 20260505180052 | 12 | 14 | 6.4 | 22.5 | 0.00 | 0.00 | 0.00 | 83 | 1007.3 |
| 20260505174558 | 12 | 14 | 8.0 | 30.6 | 0.00 | 0.00 | 0.00 | 83 | 1006.8 |
| 20260505173056 | 13 | 13 | 8.0 | 29.0 | 0.00 | 0.00 | 0.00 | 84 | 1006.5 |
| 20260505171556 | 13 | 15 | 4.8 | 33.8 | 0.00 | 0.00 | 0.00 | 84 | 1006.4 |
| 20260505170056 | 13 | 16 | 8.0 | 27.4 | 0.00 | 0.00 | 0.00 | 83 | 1006.3 |
| 20260505164607 | 13 | 13 | 8.0 | 30.6 | 0.00 | 0.00 | 0.00 | 83 | 1005.9 |
| 20260505163053 | 14 | 12 | 8.0 | 32.2 | 0.00 | 0.00 | 0.00 | 82 | 1005.6 |
| 20260505161557 | 15 | 13 | 6.4 | 24.1 | 0.00 | 0.00 | 0.00 | 81 | 1005.5 |
| 20260505153053 | 20 | 11 | 6.4 | 27.4 | 0.00 | 0.00 | 0.00 | 78 | 1004.6 |
| 20260505151550 | 21 | 0 | 0.0 | 1.6 | 0.00 | 0.00 | 0.00 | 80 | 1004.2 |
| 20260505140112 | 18 | 24 | 1.6 | 6.4 | 0.00 | 0.00 | 0.00 | 84 | 1003.3 |
| 20260505124558 | 18 | 0 | 0.0 | 6.4 | 0.00 | 0.00 | 0.00 | 82 | 1003.8 |
| 20260505123053 | 18 | 21 | 0.0 | 4.8 | 0.00 | 0.00 | 0.00 | 83 | 1003.7 |
| 20260505121550 | 18 | 22 | 0.0 | 6.4 | 0.00 | 0.00 | 0.00 | 82 | 1003.3 |
| 20260505120058 | 18 | 15 | 0.0 | 4.8 | 0.00 | 0.00 | 0.00 | 82 | 1003.2 |
| 20260505114548 | 18 | 16 | 0.0 | 6.4 | 0.00 | 0.00 | 0.00 | 82 | 1003.2 |
| 20260505113055 | 18 | 16 | 1.6 | 6.4 | 0.00 | 0.00 | 0.00 | 81 | 1003.1 |
| 20260505111553 | 18 | 0 | 0.0 | 4.8 | 0.00 | 0.00 | 0.00 | 81 | 1002.9 |
| 20260505110104 | 18 | 16 | 0.0 | 6.4 | 0.00 | 0.00 | 0.00 | 81 | 1002.7 |
| 20260505101551 | 18 | 0 | 0.0 | 4.8 | 0.00 | 0.00 | 0.00 | 81 | 1002.2 |
| 20260505100052 | 18 | 0 | 0.0 | 4.8 | 0.00 | 0.00 | 0.00 | 81 | 1002.2 |
| 20260505094554 | 18 | 16 | 0.0 | 6.4 | 0.00 | 0.00 | 0.00 | 80 | 1002.1 |
| 20260505093053 | 18 | 23 | 0.0 | 4.8 | 0.00 | 0.00 | 0.00 | 79 | 1002.1 |
| 20260505091604 | 19 | 0 | 0.0 | 3.2 | 0.00 | 0.00 | 0.00 | 80 | 1002.2 |
| 20260505090049 | 19 | 23 | 0.0 | 3.2 | 0.00 | 0.00 | 0.00 | 79 | 1002.2 |
| 20260505084553 | 19 | 0 | 0.0 | 4.8 | 0.00 | 0.00 | 0.00 | 79 | 1002.4 |
| 20260505083053 | 19 | 22 | 0.0 | 4.8 | 0.00 | 0.00 | 0.00 | 78 | 1002.3 |
| 20260505081553 | 19 | 0 | 0.0 | 3.2 | 0.00 | 0.00 | 0.00 | 77 | 1002.6 |
| 20260505080100 | 19 | 0 | 0.0 | 3.2 | 0.00 | 0.00 | 0.00 | 78 | 1002.4 |
| 20260505074549 | 20 | 0 | 0.0 | 0.0 | 0.00 | 0.00 | 0.00 | 76 | 1003.0 |
| 20260505073053 | 20 | 0 | 0.0 | 3.2 | 0.00 | 0.00 | 0.00 | 76 | 1002.9 |
| 20260505071555 | 20 | 0 | 0.0 | 3.2 | 0.00 | 0.00 | 0.00 | 76 | 1003.2 |
| 20260505070053 | 20 | 0 | 0.0 | 4.8 | 0.00 | 0.00 | 0.00 | 77 | 1003.2 |
| 20260505064548 | 19 | 0 | 0.0 | 0.0 | 0.00 | 0.00 | 0.00 | 77 | 1003.4 |
| 20260505063110 | 20 | 0 | 0.0 | 0.0 | 0.00 | 0.00 | 0.00 | 76 | 1003.4 |
| 20260505061552 | 20 | 0 | 0.0 | 8.0 | 0.00 | 0.00 | 0.00 | 74 | 1002.8 |
| 20260505060056 | 20 | 0 | 0.0 | 6.4 | 0.00 | 0.00 | 0.00 | 74 | 1002.5 |
| 20260505054607 | 20 | 24 | 1.6 | 8.0 | 0.00 | 0.00 | 0.00 | 73 | 1002.6 |
| 20260505053056 | 20 | 22 | 1.6 | 14.5 | 0.00 | 0.00 | 0.00 | 73 | 1002.9 |
| 20260505051551 | 20 | 0 | 1.6 | 12.9 | 0.00 | 0.00 | 0.00 | 72 | 1002.9 |
| 20260505041555 | 20 | 24 | 3.2 | 12.9 | 0.00 | 0.00 | 0.00 | 69 | 1002.8 |
| 20260505040056 | 20 | 24 | 4.8 | 17.7 | 0.00 | 0.00 | 0.00 | 70 | 1003.1 |
| 20260505034549 | 20 | 24 | 3.2 | 17.7 | 0.00 | 0.00 | 0.00 | 70 | 1003.0 |
| 20260505033047 | 21 | 23 | 3.2 | 14.5 | 0.00 | 0.00 | 0.00 | 69 | 1003.4 |
| 20260505031600 | 21 | 24 | 1.6 | 9.7 | 0.00 | 0.00 | 0.00 | 66 | 1003.9 |
| 20260505030109 | 21 | 0 | 0.0 | 4.8 | 0.00 | 0.00 | 0.00 | 65 | 1003.8 |
| 20260505024559 | 21 | 0 | 0.0 | 12.9 | 0.00 | 0.00 | 0.00 | 64 | 1004.0 |
| 20260505023051 | 21 | 0 | 1.6 | 12.9 | 0.00 | 0.00 | 0.00 | 64 | 1003.9 |
| 20260505021558 | 22 | 24 | 1.6 | 9.7 | 0.00 | 0.00 | 0.00 | 63 | 1004.0 |
| 20260505020047 | 22 | 23 | 1.6 | 17.7 | 0.00 | 0.00 | 0.00 | 64 | 1004.1 |